Starlink 30892

operational
NORAD ID: 58366 Int'l Des: 2023-177 Owner: SPXS Country: US Constellation: starlink
LEOCIRCULAR

About Starlink 30892

Description loading...

Live Position

Loading 3D Globe...

Upcoming Passes

Altitude History

Altitude vs Time

uPlot chart will show altitude changes over time

Two-Line Element Set

1 58366U 23177R 26036.70902735 .00001131 00000-0 98744-4 0 9990
2 58366 43.0024 165.4844 0001703 277.1209 82.9439 15.02541055123418
Epoch: Feb 5, 2026 • Age: 14 hours

Current Status

Altitude 560.3 km
Velocity 7.58 km/s
Sub-Earth Point -10.79°S, 95.51°W
Launch Date Nov 18, 2023
Age 2.2 years
Type internet

Technical Details

Classification Payload
Mass 730.00 kg
Dry Mass 700.00 kg
Total Mass 730.00 kg
Length 0.30 m
Diameter 4.10 m
Span 29.00 m
Shape Box + pan
Manufacturer SPXS
Bus Type Starlink V2M
Phase Status In Orbit
Owner/State SPXS/US

Large Constellations

Loading constellations...